Location: Burzi?i
(45.0869°N, 16.0577°E)
Time: 08:02:10
(UTC+00:00)

Cosmos 1315 Rocket - Pass Details

Date: 29 October 2020
Orbit: 530 x 567 km, 81.2° (Epoch: 27 November)

Event Time Altitude Azimuth Distance (km) Brightness Sun altitude
Rises 17:39:46 0° 195° (SSW) 2,676 6.5 -20.3°
Reaches altitude 10° 17:41:55 10° 198° (SSW) 1,795 5.6 -20.7°
Maximum altitude 17:45:51 68° 282° (WNW) 590 3.1 -21.4°
Drops below altitude 10° 17:49:52 10° 6° (N) 1,832 5.4 -22.1°
Enters shadow 17:51:55 - 9° (N) 2,677 6.3 -22.5°
